sat.trackr.live / text

‹ back to catalog

TIANQI-37

NORAD 67476 · 2026-010A

PAYLOAD ACTIVE UNKNOWN

§ Identity

Operator
Country
PRC
Launch date
2026-01-15
Launch site
YSLA
Launch vehicle
Mass (kg)
RCS (m²)

External: N2YO · Heavens-Above · Gunter

§ Orbital elements

Epoch: 2026-05-25T00:59:10.552704Z

Period
102.92 min
Inclination
44.9806°
Eccentricity
0.0013060
Mean motion
13.99159375 rev/d
Perigee alt
887.2 km
Apogee alt
906.2 km
Semi-major
7,274.8 km
B*
7.1201e-5
RAAN
184.7239°
Arg perigee
221.8859°
Mean anomaly
138.0975°
Rev number
1,815

§ Raw data

TIANQI-371 67476U 26010A   26145.04109436 -.00000025  00000+0  71201-4 0  99962 67476  44.9806 184.7239 0013060 221.8859 138.0975 13.99159375 18152

JSON: /api/v1/satellites/67476 · /tle

For live sub-satellite position, see the globe view (requires WebGL).

§ Visibility from observer

Set your observer location to see the next 7 days of passes ≥ 10°. The values pass through the URL so the page stays shareable.

No JS? Fill the form by hand. The geolocation button needs JavaScript.